OPS 4682 DEB, 38450

Orbit data source: Space-Track

OPS 4682 DEB, 38450 is space debris in LEO originally from a launch on Sat, 03 Apr 1965 UTC launched from the Air Force Western Test Range (AFWTR). Debris objects in space refer to the collection of defunct objects orbiting the Earth. Examples of debris include non-operational satellites, rocket bodies, and fragments generated from explosions, collisions, or faulty payload assembly.

Loading next visibility...
Identifier
38450, 1965-027FF
Orbit
LEO
Country
Flag of USUS
Related business
Manufacturer
Unknown
Mission
Spacecraft
Bus & Motor
Unknown
Mass
Unknown
Launch date (UTC)
1965-04-03 (61 years ago)
Launch vehicle
Unknown
Launch site
Air Force Western Test Range (AFWTR)
Object type
Payload
Rocket body
Debris
Shape & HBR
Unknown shape, 0.1 m
Radar Cross Section
Medium (>0.1 m² and <1 m²)

Expand to show TLE details & history
Last TLE update: 12 hours ago

TLE from 12 hours ago
0 OPS 4682 DEB
1 38450U 65027FF  26237.65955513  .00000936  00000-0  30587-2 0  9992
2 38450  90.2431   8.8569 0027519  67.7423 292.6614 13.00508837641141
Epoch: 2026-08-25T15:49Z
TLE epoch observation values (Epoch: 2026-08-25T15:49:45.563Z)
Latitude
Longitude
157.49333°
Altitude
1,254.927 km
Speed
7.232 km/s
True Right ascension
00h 35m 25s
True Declination
0° 00' 00"
Sunlit
Object was in full shadow at epoch
Visualization orbit readout
Latitude
Unknown
Longitude
Unknown
Altitude
Unknown
Speed
Unknown
Apparent Right ascension
Unknown
Apparent Declination
Unknown
Sunlit
N/A
Visualization observer readout
Local Sidereal Time
19:10:38
Azimuth
Unknown
Elevation
Unknown
Doppler factor
Unknown
Orbital elements
Apogee altitude
1,278.232 km
Perigee altitude
1,236.208 km
Semi-major axis
7,635.357 km
Eccentricity
0.00275
Inclination
90.2431°
RAAN
8.8569°
Arg. of periapsis
67.7423°
True anomaly
292.37002°
Mean anomaly
292.6614°
Eccentric anomaly
292.51575°
Mean motion
3.25311 °/min
Orbital period
110.66 mins
BSTAR
0.0030587
Loading maneuver chart data...
Computing Atmospheric mass density...
Loading historical data...
Loading historical data...
Loading historical data...
Loading historical data...
Loading historical data...
Loading historical data...
Loading historical data...

Documentation

Showing up to 5 results
|